When you browse on this site, cookies collect data to enhance your experience and personalize the content and advertising you see.
Visit our Privacy Policy to learn more. By continuing to use the site, you agree to this use of cookies and data.
  • En España
  • Lista de países
  • Para 7 días
  • Temperatura del agua
  • Mapa Satelital
  • El tiempo en el mapa
  • Informadores
  • user-avatar
    Iniciar sesión

    Tiempo cada hora Armawir

    Hoy, 18 Enero, Viernes

    Tiempo Temperatura Precipitaciones Viento Presión Humedad
    00:00 -2°C° 0 mm 4 mps 685 mmHg 52%
    01:00 -3°C° 0 mm 4 mps 686 mmHg 52%
    02:00 -3°C° 0 mm 4 mps 686 mmHg 52%
    03:00 -4°C° 0 mm 4 mps 687 mmHg 50%
    04:00 -4°C° 0 mm 3 mps 687 mmHg 50%
    05:00 -4°C° 0 mm 3 mps 688 mmHg 50%
    06:00 -4°C° 0 mm 3 mps 688 mmHg 50%
    07:00 -4°C° 0 mm 3 mps 689 mmHg 47%
    08:00 -2°C° 0 mm 2 mps 689 mmHg 45%
    09:00 -1°C° 0 mm 2 mps 689 mmHg 43%
    10:00 +1°C° 0 mm 2 mps 689 mmHg 41%
    11:00 +2°C° 0 mm 2 mps 689 mmHg 40%
    12:00 +2°C° 0 mm 2 mps 689 mmHg 38%
    13:00 +3°C° 0 mm 2 mps 689 mmHg 38%
    14:00 +3°C° 0 mm 2 mps 689 mmHg 38%
    15:00 +3°C° 0 mm 2 mps 688 mmHg 38%
    16:00 +2°C° 0 mm 2 mps 689 mmHg 42%
    17:00 +1°C° 0 mm 2 mps 689 mmHg 46%
    18:00 -1°C° 0 mm 2 mps 690 mmHg 50%
    19:00 -2°C° 0 mm 2 mps 690 mmHg 50%
    20:00 -2°C° 0 mm 2 mps 690 mmHg 50%
    21:00 -2°C° 0 mm 2 mps 691 mmHg 50%
    22:00 -3°C° 0 mm 2 mps 691 mmHg 49%
    23:00 -3°C° 0 mm 2 mps 691 mmHg 48%

    Mañana, 19 Enero, Sábado

    Tiempo Temperatura Precipitaciones Viento Presión Humedad
    00:00 -3°C° 0 mm 2 mps 691 mmHg 48%
    01:00 -3°C° 0 mm 2 mps 691 mmHg 47%
    02:00 -3°C° 0 mm 2 mps 691 mmHg 46%
    03:00 -4°C° 0 mm 2 mps 691 mmHg 46%
    04:00 -4°C° 0 mm 2 mps 691 mmHg 45%
    05:00 -4°C° 0 mm 2 mps 690 mmHg 45%
    06:00 -4°C° 0 mm 2 mps 690 mmHg 44%
    07:00 -3°C° 0 mm 2 mps 690 mmHg 41%
    08:00 -2°C° 0 mm 2 mps 691 mmHg 39%
    09:00 -2°C° 0 mm 2 mps 691 mmHg 36%
    10:00 +1°C° 0 mm 2 mps 690 mmHg 34%
    11:00 +3°C° 0 mm 1 mps 690 mmHg 32%
    12:00 +4°C° 0 mm 1 mps 689 mmHg 30%
    13:00 +5°C° 0 mm 1 mps 689 mmHg 29%
    14:00 +5°C° 0 mm 1 mps 689 mmHg 29%
    15:00 +5°C° 0 mm 1 mps 689 mmHg 29%
    16:00 +4°C° 0 mm 1 mps 689 mmHg 32%
    17:00 +2°C° 0 mm 2 mps 690 mmHg 35%
    18:00 -1°C° 0 mm 2 mps 690 mmHg 38%
    19:00 -1°C° 0 mm 2 mps 690 mmHg 37%
    20:00 -1°C° 0 mm 2 mps 691 mmHg 37%
    21:00 -2°C° 0 mm 2 mps 691 mmHg 36%
    22:00 -2°C° 0 mm 2 mps 691 mmHg 36%
    23:00 -2°C° 0 mm 2 mps 691 mmHg 35%

    Pasado mañana, 20 Enero, Domingo

    Tiempo Temperatura Precipitaciones Viento Presión Humedad
    00:00 -2°C° 0 mm 2 mps 691 mmHg 34%
    01:00 -3°C° 0 mm 2 mps 691 mmHg 33%
    02:00 -3°C° 0 mm 2 mps 691 mmHg 33%
    03:00 -3°C° 0 mm 2 mps 691 mmHg 32%
    04:00 -3°C° 0 mm 2 mps 691 mmHg 31%
    05:00 -3°C° 0 mm 2 mps 691 mmHg 31%
    06:00 -4°C° 0 mm 2 mps 691 mmHg 30%
    07:00 -3°C° 0 mm 2 mps 691 mmHg 28%
    08:00 -2°C° 0 mm 2 mps 692 mmHg 27%
    09:00 -1°C° 0 mm 2 mps 692 mmHg 25%
    10:00 +2°C° 0 mm 1 mps 692 mmHg 24%
    11:00 +3°C° 0 mm 1 mps 691 mmHg 22%
    12:00 +4°C° 0 mm 1 mps 691 mmHg 21%
    13:00 +5°C° 0 mm 1 mps 691 mmHg 21%
    14:00 +5°C° 0 mm 1 mps 690 mmHg 21%
    15:00 +5°C° 0 mm 1 mps 690 mmHg 21%
    16:00 +4°C° 0 mm 1 mps 690 mmHg 23%
    17:00 +3°C° 0 mm 1 mps 691 mmHg 26%
    18:00 +1°C° 0 mm 1 mps 691 mmHg 29%
    19:00 +1°C° 0 mm 1 mps 691 mmHg 29%
    20:00 +1°C° 0 mm 1 mps 692 mmHg 29%
    21:00 0°C° 0 mm 1 mps 692 mmHg 30%
    22:00 -2°C° 0 mm 2 mps 692 mmHg 30%
    23:00 -2°C° 0 mm 2 mps 692 mmHg 30%

    21 Enero, Lunes

    Tiempo Temperatura Precipitaciones Viento Presión Humedad
    00:00 -3°C° 0 mm 2 mps 692 mmHg 31%
    01:00 -3°C° 0 mm 2 mps 692 mmHg 31%
    02:00 -3°C° 0 mm 2 mps 692 mmHg 31%
    03:00 -3°C° 0 mm 2 mps 692 mmHg 31%
    04:00 -3°C° 0 mm 2 mps 692 mmHg 32%
    05:00 -4°C° 0 mm 2 mps 692 mmHg 32%
    06:00 -4°C° 0 mm 2 mps 692 mmHg 32%
    07:00 -3°C° 0 mm 2 mps 692 mmHg 31%
    08:00 0°C° 0 mm 1 mps 692 mmHg 30%
    09:00 0°C° 0 mm 1 mps 692 mmHg 28%
    10:00 +2°C° 0 mm 1 mps 691 mmHg 27%
    11:00 +3°C° 0 mm 1 mps 691 mmHg 25%
    12:00 +4°C° 0 mm 1 mps 690 mmHg 24%
    13:00 +4°C° 0 mm 1 mps 690 mmHg 24%
    14:00 +4°C° 0 mm 1 mps 689 mmHg 24%
    15:00 +5°C° 0 mm 1 mps 689 mmHg 24%
    16:00 +4°C° 0 mm 1 mps 689 mmHg 27%
    17:00 +2°C° 0 mm 1 mps 689 mmHg 29%
    18:00 +1°C° 0 mm 1 mps 689 mmHg 32%
    19:00 -1°C° 0 mm 2 mps 690 mmHg 32%
    20:00 -2°C° 0 mm 2 mps 690 mmHg 33%
    21:00 -2°C° 0 mm 2 mps 690 mmHg 34%
    22:00 -2°C° 0 mm 2 mps 690 mmHg 35%
    23:00 -2°C° 0 mm 2 mps 690 mmHg 35%

    22 Enero, Martes

    Tiempo Temperatura Precipitaciones Viento Presión Humedad
    00:00 -3°C° 0 mm 2 mps 690 mmHg 36%
    01:00 -3°C° 0 mm 2 mps 690 mmHg 36%
    02:00 -3°C° 0 mm 2 mps 690 mmHg 37%
    03:00 -3°C° 0 mm 2 mps 690 mmHg 37%
    04:00 -3°C° 0 mm 2 mps 689 mmHg 37%
    05:00 -4°C° 0 mm 2 mps 689 mmHg 38%
    06:00 -4°C° 0 mm 2 mps 689 mmHg 38%
    07:00 -3°C° 0 mm 2 mps 689 mmHg 36%
    08:00 -2°C° 0 mm 2 mps 690 mmHg 34%
    09:00 -2°C° 0 mm 2 mps 690 mmHg 32%
    10:00 +1°C° 0 mm 2 mps 689 mmHg 30%
    11:00 +3°C° 0 mm 1 mps 689 mmHg 29%
    12:00 +4°C° 0 mm 1 mps 688 mmHg 27%
    13:00 +5°C° 0 mm 1 mps 688 mmHg 28%
    14:00 +5°C° 0 mm 1 mps 687 mmHg 28%
    15:00 +5°C° 0 mm 1 mps 687 mmHg 28%
    16:00 +4°C° 0 mm 1 mps 687 mmHg 32%
    17:00 +3°C° 0 mm 1 mps 688 mmHg 35%
    18:00 +2°C° 0 mm 1 mps 688 mmHg 39%
    19:00 +1°C° 0 mm 1 mps 688 mmHg 39%
    20:00 -1°C° 0 mm 2 mps 688 mmHg 39%
    21:00 -1°C° 0 mm 2 mps 689 mmHg 40%
    22:00 -2°C° 0 mm 2 mps 689 mmHg 40%
    23:00 -2°C° 0 mm 2 mps 688 mmHg 40%

    23 Enero, Miércoles

    Tiempo Temperatura Precipitaciones Viento Presión Humedad
    00:00 -2°C° 0 mm 2 mps 688 mmHg 40%
    01:00 -3°C° 0 mm 2 mps 688 mmHg 40%
    02:00 -1°C° 0 mm 1 mps 688 mmHg 39%
    03:00 -1°C° 0 mm 1 mps 688 mmHg 39%
    04:00 -1°C° 0 mm 1 mps 688 mmHg 39%
    05:00 -1°C° 0 mm 1 mps 688 mmHg 39%
    06:00 -1°C° 0 mm 1 mps 688 mmHg 39%
    07:00 -1°C° 0 mm 1 mps 689 mmHg 37%
    08:00 0°C° 0 mm 1 mps 689 mmHg 35%
    09:00 +1°C° 0 mm 1 mps 689 mmHg 33%
    10:00 +2°C° 0 mm 1 mps 689 mmHg 31%
    11:00 +2°C° 0 mm 2 mps 688 mmHg 29%
    12:00 +3°C° 0 mm 2 mps 688 mmHg 28%
    13:00 +4°C° 0 mm 2 mps 688 mmHg 28%
    14:00 +4°C° 0 mm 2 mps 688 mmHg 29%
    15:00 +4°C° 0 mm 2 mps 687 mmHg 29%
    16:00 +3°C° 0 mm 2 mps 688 mmHg 32%
    17:00 +2°C° 0 mm 2 mps 688 mmHg 36%
    18:00 +1°C° 0 mm 2 mps 688 mmHg 39%
    19:00 -1°C° 0 mm 2 mps 689 mmHg 40%
    20:00 -1°C° 0 mm 2 mps 689 mmHg 41%
    21:00 +1°C° 0 mm 1 mps 689 mmHg 43%
    22:00 -2°C° 0 mm 2 mps 690 mmHg 44%
    23:00 -2°C° 0 mm 2 mps 690 mmHg 45%
    Mostrar más